Change the Weather History Date:

Tuesday, May 28, 2013

  Actual Average Record
Temperature  
Mean Temperature 76 °F -  
Max Temperature 86 °F - 93 °F (2012)
Min Temperature 65 °F - 42 °F (1961)
Degree Days  
Heating Degree Days 0    
Month to date heating degree days 78  
Since 1 July heating degree days 3952  
Cooling Degree Days 11    
Month to date cooling degree days 101  
Growing Degree Days 25 (Base 50)    
Moisture  
Dew Point 60 °F    
Average Humidity 59    
Maximum Humidity 87    
Minimum Humidity 37    
Precipitation  
Precipitation 0.00 in - 1.00 in (1983)
Month to date precipitation 2.63  
Sea Level Pressure  
Sea Level Pressure 30.01 in    
Wind  
Wind Speed 10 mph (SSW)    
Max Wind Speed 23 mph    
Max Gust Speed 31 mph    
Visibility 10 miles    
Events      
T = Trace of Precipitation, MM = Missing Value Source: NWS Daily Summary

Daily Weather History Graph

Daily Weather History Graph

Search for Another Location

Airport or City:

Trip Planner

Search our weather history database for the weather conditions in past years. The results will help you decide how hot, cold, wet, or windy it might be!

Date:

Astronomy

May. 28, 2013 Rise Set
Actual Time 5:34 AM CDT 8:00 PM CDT
Civil Twilight 5:04 AM CDT 8:30 PM CDT
Nautical Twilight 4:27 AM CDT 9:06 PM CDT
Astronomical Twilight 3:47 AM CDT 9:47 PM CDT
Moon 11:27 PM CDT (5/28) 9:19 AM CDT (5/28)
Length of Visible Light 15h 25m
Length of Day
14h 26m
Waning Gibbous, 82% of the Moon is Illuminated
May 28
Waning Gibbous
May 31
Last Quarter
Jun 8
New
Jun 16
First Quarter
Jun 23
Full

Hourly Weather History & Observations

Time (CDT) Temp. Heat Index Dew Point Humidity Pressure Visibility Wind Dir Wind Speed Gust Speed Precip Events Conditions
12:52 AM 70.0 °F - 61.0 °F 73% 29.99 in 10.0 mi Calm Calm - N/A   Clear
1:52 AM 69.1 °F - 61.0 °F 75% 30.00 in 10.0 mi SSE 3.5 mph - N/A   Clear
2:52 AM 66.0 °F - 61.0 °F 84% 29.99 in 10.0 mi ESE 4.6 mph - N/A   Clear
3:52 AM 64.9 °F - 60.1 °F 84% 29.99 in 10.0 mi Calm Calm - N/A   Clear
4:52 AM 68.0 °F - 60.1 °F 76% 30.00 in 10.0 mi SSW 6.9 mph - N/A   Clear
5:52 AM 70.0 °F - 59.0 °F 68% 30.03 in 10.0 mi SSW 8.1 mph - N/A   Scattered Clouds
6:52 AM 70.0 °F - 60.1 °F 71% 30.05 in 10.0 mi SSW 5.8 mph - N/A   Partly Cloudy
7:52 AM 72.0 °F - 61.0 °F 68% 30.05 in 10.0 mi South 9.2 mph - N/A   Clear
8:52 AM 75.9 °F - 63.0 °F 64% 30.06 in 10.0 mi SSW 11.5 mph - N/A   Clear
9:52 AM 79.0 °F - 64.0 °F 60% 30.06 in 10.0 mi SSW 9.2 mph 18.4 mph N/A   Clear
10:52 AM 81.0 °F 82.2 °F 63.0 °F 54% 30.05 in 10.0 mi SSW 16.1 mph 24.2 mph N/A   Clear
11:52 AM 82.9 °F 83.7 °F 62.1 °F 49% 30.04 in 10.0 mi SW 18.4 mph 26.5 mph N/A   Clear
12:52 PM 84.0 °F 84.4 °F 61.0 °F 46% 30.03 in 10.0 mi South 17.3 mph 26.5 mph N/A   Clear
1:52 PM 84.9 °F 84.2 °F 57.9 °F 40% 30.02 in 10.0 mi SSW 20.7 mph 26.5 mph N/A   Clear
2:52 PM 84.9 °F 84.2 °F 57.9 °F 40% 30.01 in 10.0 mi SSW 12.7 mph 24.2 mph N/A   Clear
3:52 PM 86.0 °F 85.0 °F 57.9 °F 38% 30.01 in 10.0 mi SW 12.7 mph 18.4 mph N/A   Clear
4:52 PM 84.9 °F 84.2 °F 57.9 °F 40% 29.99 in 10.0 mi SSW 15.0 mph - N/A   Clear
5:52 PM 84.9 °F 84.2 °F 57.9 °F 40% 29.98 in 10.0 mi SSW 11.5 mph 18.4 mph N/A   Clear
6:52 PM 82.9 °F 82.8 °F 59.0 °F 44% 29.98 in 10.0 mi South 9.2 mph - N/A   Partly Cloudy
7:52 PM 79.0 °F - 59.0 °F 50% 29.99 in 10.0 mi South 9.2 mph - N/A   Clear
8:52 PM 75.9 °F - 59.0 °F 56% 29.99 in 10.0 mi South 6.9 mph - N/A   Clear
9:52 PM 73.0 °F - 59.0 °F 61% 29.99 in 10.0 mi South 4.6 mph - N/A   Clear
10:52 PM 71.1 °F - 59.0 °F 66% 29.98 in 10.0 mi South 5.8 mph - N/A   Clear
11:52 PM 72.0 °F - 59.0 °F 64% 30.01 in 10.0 mi Calm Calm - N/A   Clear